{"data":{"norad_id":63770,"intl_designator":"2025-089V","name":"STARLINK-33884","alt_names":[],"object_type":"PAYLOAD","status":"ACTIVE","operator":null,"country":"US","launch_date":"2025-04-29","launch_site_code":"AFETR","launch_vehicle":null,"mission":null,"orbit_class":"UNKNOWN","rcs_meters":null,"size_class":null,"mass_kg":null,"dimensions":null,"purposes":["comms"],"wikipedia_slug":null,"has_3d_model":false,"image_url":null,"decayed_at":null,"tle_current":{"epoch":"2026-09-20T15:05:09.242016Z","epoch_age_seconds":138791,"freshness":"FRESH","line1":"1 63770U 25089V   26263.62857919  .00015278  00000+0  56339-3 0  9994","line2":"2 63770  43.0008  24.0850 0000894 269.2181  90.8569 15.27590695 78729","mean_motion":15.27590695,"eccentricity":8.94e-5,"inclination_deg":43.0008,"raan_deg":24.085,"arg_perigee_deg":269.2181,"mean_anomaly_deg":90.8569,"bstar":0.00056339,"rev_number":7872,"period_min":94.266088731314,"perigee_km":482.40368437499,"apogee_km":483.63045872299,"semimajor_km":6861.154071549,"source":"CELESTRAK","updated_at":"2026-09-21T09:00:35.096677Z"}}}